TimeEDT,TemperatureF,Dew PointF,Humidity,Sea Level PressureIn,VisibilityMPH,Wind Direction,Wind SpeedMPH,Gust SpeedMPH,PrecipitationIn,Events,Conditions,WindDirDegrees,DateUTC
12:51 AM,72.0,55.9,57,30.14,10.0,NNW,5.8,-,N/A,,Partly Cloudy,330,2013-07-31 04:51:00
1:51 AM,71.1,54.0,55,30.14,10.0,WNW,5.8,-,N/A,,Scattered Clouds,300,2013-07-31 05:51:00
2:51 AM,71.1,55.0,57,30.14,10.0,NW,8.1,-,N/A,,Scattered Clouds,320,2013-07-31 06:51:00
3:51 AM,70.0,55.0,59,30.14,10.0,NNW,8.1,-,N/A,,Scattered Clouds,330,2013-07-31 07:51:00
4:51 AM,69.1,55.0,61,30.14,10.0,NNW,5.8,-,N/A,,Scattered Clouds,330,2013-07-31 08:51:00
5:51 AM,68.0,55.0,63,30.15,10.0,North,4.6,-,N/A,,Mostly Cloudy,350,2013-07-31 09:51:00
6:51 AM,70.0,57.0,63,30.16,10.0,NNW,6.9,-,N/A,,Mostly Cloudy,330,2013-07-31 10:51:00
7:51 AM,75.0,55.9,51,30.17,10.0,NW,5.8,-,N/A,,Mostly Cloudy,320,2013-07-31 11:51:00
8:51 AM,77.0,55.0,47,30.17,10.0,Variable,3.5,-,N/A,,Mostly Cloudy,0,2013-07-31 12:51:00
9:51 AM,79.0,55.0,44,30.16,10.0,Calm,Calm,-,N/A,,Mostly Cloudy,0,2013-07-31 13:51:00
10:51 AM,78.1,55.9,46,30.15,10.0,Variable,4.6,-,N/A,,Mostly Cloudy,0,2013-07-31 14:51:00
11:51 AM,80.1,57.0,45,30.14,10.0,South,8.1,-,N/A,,Mostly Cloudy,190,2013-07-31 15:51:00
12:51 PM,80.1,57.0,45,30.13,10.0,South,11.5,-,N/A,,Mostly Cloudy,190,2013-07-31 16:51:00
1:51 PM,79.0,55.9,45,30.13,10.0,South,15.0,-,N/A,,Mostly Cloudy,190,2013-07-31 17:51:00
2:51 PM,82.0,55.9,41,30.11,10.0,South,12.7,-,N/A,,Mostly Cloudy,190,2013-07-31 18:51:00
3:51 PM,79.0,55.9,45,30.10,10.0,South,11.5,-,N/A,,Mostly Cloudy,180,2013-07-31 19:51:00
4:51 PM,78.1,60.1,54,30.09,10.0,South,11.5,-,N/A,,Mostly Cloudy,170,2013-07-31 20:51:00
5:51 PM,77.0,61.0,58,30.08,10.0,South,9.2,-,N/A,,Mostly Cloudy,180,2013-07-31 21:51:00
6:51 PM,75.0,64.0,69,30.07,10.0,South,12.7,-,N/A,,Mostly Cloudy,190,2013-07-31 22:51:00
7:51 PM,73.9,63.0,68,30.06,10.0,South,10.4,-,N/A,,Mostly Cloudy,180,2013-07-31 23:51:00
8:51 PM,73.0,63.0,71,30.06,10.0,South,10.4,-,N/A,,Mostly Cloudy,190,2013-08-01 00:51:00
9:51 PM,73.0,64.0,73,30.07,10.0,South,9.2,-,N/A,,Mostly Cloudy,190,2013-08-01 01:51:00
10:51 PM,73.0,64.9,76,30.07,10.0,SSW,10.4,-,N/A,,Mostly Cloudy,200,2013-08-01 02:51:00
11:51 PM,72.0,66.0,81,30.06,10.0,South,5.8,-,N/A,,Mostly Cloudy,190,2013-08-01 03:51:00